Location: Unspecified
(40.7945°N, 111.1337°W)
Time: 15:18:48
(UTC-06:00)

Vanguard 1 - Pass Details

Date: 21 June 2019
Orbit: 653 x 3830 km, 34.3° (Epoch: 15 July)

Event Time Altitude Azimuth Distance (km) Brightness Sun altitude
Exits shadow 01:33:00 23° 148° (SSE) 5,070 13.2 -25.7°
Maximum altitude 01:33:53 23° 145° (SE) 5,004 13.2 -25.7°
Drops below altitude 10° 01:44:58 10° 100° (E) 5,088 13.6 -25.6°
Sets 01:49:19 0° 87° (E) 5,623 14.1 -25.5°
